Terminal Aerodrome Forecast
Issued by NWS

Home | Current Version | Previous Version | Text Only | Print | Product List | Glossary On
Versions: 1 2 3 4 5 6 7 8 9 10 11 12 13 14 15 16
000
FTUS43 KAPX 301120
TAFMBL
TAF
KMBL 301120Z 3012/3112 26013G22KT P6SM SKC
     FM301300 28015G27KT P6SM SKC
     FM302100 29010G19KT P6SM SKC
     FM310200 26007KT P6SM SKC
      AMD LTD TO CLD VIS AND WIND=

USA.gov is the U.S. government's official web portal to all federal, state and local government web resources and services.